Погода в Кирове

Погода в Кирове : погода сейчас, прогноз погоды и архив. Всё, что Вы хотите узнать о погоде в Кирове!

Хотите узнать прогноз погоды в Кирове? Тогда Вам сюда: Погода в Кирове

Поиск расширенной информации на нашем сайте:

Другие новости

Новости СМИ2

Главная страница сайта

Новости сайта

03.07.2017

Напоминаем, что на нашем специализированном сайте Метеоцентр.Азия вы можете получить высокодетализированные автоматические прогнозы погоды по пунктам России, СНГ и мира в авиационном формате (включающие направление и скорость ветра, видимость, явления погоды, количество и форму облачности, нижнюю и верхнюю границу облачности).


Погода в Кирове - сегодня

Время (UTC), дата Ветер
(°,м/с) 
Видим.   Явления Облачность Т
(°С)
Тd
(°С)
f(%) Тe
(°С)
Pmin
(гПа)
dP
(гПа)
Po
(мм)
O2
(г/м3)
Тmin Tmax R s Состояние
почвы
12 10.08.18 260 (З) 3-8{09}  20000 м    9/3 600 м средняя, верхняя 
[Sc|Ac trans|Ci fib]
+22.6 +14.5 60 +30    -2.8  749  276           
15 10.08.18 270 (З) 3-7{09}  20000 м    9/0 средняя, верхняя 
[Ac trans|Ci sp]
+24.2 +15.4 58 +34  1014.7  -1.8  747  273    +24.6       
03 11.08.18 290 (З) 2-5{05}  20000 м    9/4 600 м средняя, верхняя 
[Sc|Ac trans|Ci fib]
+18.8 +16.6 87 +32  1015.2  0.4  748  278  +18.3        сухая 
15 11.08.18 280 (З) 2-4{06}  20000 м  {ливн. осадки}  9/5 600 м кучево-дожд., средняя, верхняя 
[Cb calv|Ac lent|Ci fib]
+26.2 +17.8 60 +40  1012.1  -1.1  746  270    +27.2  0.0     
21 11.08.18 270 (З) 2-4{04}  20000 м    ясно 
+19.7 +15.5 77 +31  1012.8  0.2  746  277           
03 12.08.18 260 (З) 1-3{04}  20000 м    3/0 верхняя 
[Ci fib]
+17.2 +15 87 +28  1012.7  0.1  746  279  +15        сухая 
06 12.08.18 230 (ЮЗ) 2-4{05}  20000 м    ясно 
+21.9 +15.9 69 +32  1011.8  -0.6  745  275           
21 12.08.18 220 (ЮЗ) 1-3{03}  20000 м    ясно 
+17.4 +14.8 85 +28  1008.1  -1.1  742  278           
03 13.08.18 220 (ЮЗ) 2-4{04}  20000 м    8/0 верхняя 
[Ci fib]
+17.5 +14.8 84 +27  1006  -1  741  277  +15.1        сухая 
15 13.08.18 260 (З) 2-5{12}  20000 м    3/3 600 м 
[Cu med, cong]
+22.2 +9.2 43 +23  1004.2  -0.2  740  274    +24.5       
21 13.08.18 260 (З) 1-2{03}  20000 м    ясно 
+13.6 +9.9 78 +17  1005.8  0.4  725  277           
03 14.08.18 240 (ЮЗ) 1-4{04}  20000 м    3/3 600 м 
[Sc diur, vesp]
+13 +10.3 84 +16  1007.5  742  283  +10.9        сухая 
15 14.08.18 250 (З) 1-3{07}  20000 м  {ливн. осадки}  6/6 600 м кучево-дожд. 
[Cb calv]
+18.9 +10.4 58 +22  1009.7  0.8  743  278    +20.7  0.1     
21 14.08.18 250 (З) 1-2{04}  20000 м    ясно 
+11.8 +10.9 94 +15  1012.6  0.7  745  286           
00 15.08.18 250 (З) 1-2{02}  20000 м    ясно 
+9.6 +9.2 97 +11  1013.4  0.6  746  289           
03 15.08.18 280 (З) 2-3{04}  20000 м    1/1 600 м 
[Sc]
+11.9 +10.7 92 +14  1014.2  746  286  +8.9    0.3    влажная 
15 15.08.18 270 (З) 1-2{06}  20000 м    10/3 600 м средняя 
[Sc|Ac As]
+19.5 +10.6 56 +23  1014.6  -0.1  747  279    +21.2       
03 16.08.18 210 (ЮЗ) 2-5{06}  10 км  слаб. ливневой дождь  10/10 300 м кучево-дожд. 
[Cb cap]
+15.2 +15.1 99 +25  1005.7  -2.9  740  279  +13.7    10    мокрая 
15 16.08.18 330 (СЗ) 1-3{06}  20000 м  слаб. ливневой дождь  10/10 300 м кучево-дожд. 
[Cb cap]
+15.6 +12.7 83 +22  1013.9  2.1  746  282    +16.8     
03 17.08.18 310 (СЗ) 1-2{02}  2000 м  дымка  1/0 средняя 
[Ac trans]
+10.4 +10.2 99 +13  1020.5  1.7  751  290  +10.1    0.1    влажная 
15 17.08.18 330 (СЗ) 2-5{08}  20000 м    1/1 600 м 
[Sc diur, vesp]
+16.4 +6.7 53 +17  1021.7  0.3  752  285    +18.2  0.3     
18 17.08.18 тихо () -0{07}  20000 м    ясно 
+10 +7.3 83 +10  1022.9  0.8  753  291           
21 17.08.18 тихо () -0{01}  20000 м    ясно 
+7.6 +7 96 +8  1023.5  0.4  753  294           
00 18.08.18 тихо () -0{01}  20000 м    ясно 
+8 +7.8 99 +8  1024  0.6  753  294           
03 18.08.18 320 (СЗ) 1-1{01}  20000 м    1/1 600 м 
[Sc diur, vesp]
+8.4 +7.8 96 +9  1024.8  0.8  754  293  +6.9        влажная 
Время (UTC), дата Ветер
(°,м/с) 
Видим.   Явления Облачность Т
(°С)
Тd
(°С)
f(%) Тe
(°С)
Pmin
(гПа)
dP
(гПа)
Po
(мм)
O2
(г/м3)
Тmin Tmax R s Состояние
почвы

Для получения пояснительной информации подведите курсор к названию столбца.

ПОГОДА в Кирове - архив

Всё, что Вы хотите узнать о погоде в Кирове - удобно и подробно!

Выберите нужную дату (начиная с 1 января 2015* года) и нажмите кнопку "Найти".
Будут отображены архивные сводки погоды по пункту Киров, начиная с указанной даты.


Отображать данные в формате CSV (для использования в таблицах Excel)


Внимание! Наш архив погоды предназначен исключительно для личного некоммерческого использования в познавательных целях. Если Вам необходимы официальные справки о состоянии погоды (для производственных, юридических, коммерческих и т.п. целей), обращайтесь в органы Росгидромета.

*Примечание: данная дата относится к архиву по метеостанциям СССР (Россия, СНГ, Балтия).
Архив по метеостанциям Зарубежной Европы и Азии (кроме Китая) хранится 10 дней, по другим регионам земного шара (Китай, Африка, Америка, Австралия, Океания) - 1 день.

Киров - район местоположения метеостанции


Название, широта, долгота, высота метеостанции:
Киров 58.6°ш. 49.6°д. 158 м над ур. моря [Российская Федерация]

Дополнительная информация

В oтличие oт бoльшинства пoгoдных сайтoв мы публикуем пoдрoбную метеoинфoрмацию в детальнoм прoфессиoнальнoм фoрмате.

Характеристики температуры и влажнoсти вoздуха измеряются на высoте 2 м в тени вдали oт зданий и деревьев.
Скoрoсть ветра измеряется на высoте 10 м (на урoвне рoста челoвека скoрoсть ветра ниже в 1.5-2 раза). Если метеoстанция нахoдится в гoрoде или в лесу, тo скoрoсть ветра занижена на 2-4 м/с пo сравнению с oткрытым местoм. Скoрoсть ветра над акватoриями крупных рек и oзёр, а также на вершинах хoлмoв на 2-5 м/с выше, чем в oбычных услoвиях.
Атмoсфернoе давление в разных тoчках местнoсти мoжет значительнo oтличаться oт давления на метеoстанции, в зависимoсти oт услoвий рельефа (при пoдъёме на 10 м давление пoнижается примернo на 1 мм рт.ст.).